This is the latest recevied weather packets stored in our database for station/object DH2PG-6. If no packets are shown the sender has not sent any weather packets the latest 10 day(s).
| Time | Temp. | Humidity | Pressure | Rain* | Wind** | Luminosity | Snow |
|---|---|---|---|---|---|---|---|
| 1788543352 | 21.67° C | 66% | 1012.1 hPa | 0 mm | - | - | - |
| 1788543052 | 22.22° C | 66% | 1012.1 hPa | 0 mm | - | - | - |
| 1788542751 | 22.22° C | 65% | 1012.1 hPa | 0 mm | - | - | - |
| 1788542451 | 22.22° C | 65% | 1012.1 hPa | 0 mm | - | - | - |
| 1788542151 | 22.78° C | 64% | 1012.1 hPa | 0 mm | - | - | - |
| 1788541550 | 22.78° C | 63% | 1012 hPa | 0 mm | - | - | - |
| 1788541250 | 22.78° C | 63% | 1012 hPa | 0 mm | - | - | - |
| 1788540950 | 23.33° C | 62% | 1012 hPa | 0 mm | - | - | - |
| 1788540349 | 23.33° C | 62% | 1012.1 hPa | 0 mm | - | - | - |
| 1788540049 | 23.33° C | 61% | 1012 hPa | 0 mm | - | - | - |
| 1788539777 | 23.33° C | 61% | 1012.1 hPa | 0 mm | - | - | - |
| 1788539148 | 23.89° C | 62% | 1011.9 hPa | 0 mm | - | - | - |
| 1788538848 | 23.89° C | 62% | 1012 hPa | 0 mm | - | - | - |
| 1788538547 | 23.89° C | 62% | 1012.2 hPa | 0 mm | - | - | - |
| 1788538247 | 23.89° C | 62% | 1012.1 hPa | 0 mm | - | - | - |
| 1788537947 | 23.89° C | 62% | 1012.1 hPa | 0 mm | - | - | - |
| 1788537346 | 23.89° C | 63% | 1012.3 hPa | 0 mm | - | - | - |
| 1788537046 | 23.33° C | 63% | 1012.1 hPa | 0 mm | - | - | - |
| 1788536747 | 23.89° C | 63% | 1012.1 hPa | 0 mm | - | - | - |
| 1788536145 | 24.44° C | 62% | 1012.1 hPa | 0 mm | - | - | - |
| 1788535845 | 23.89° C | 62% | 1012.3 hPa | 0 mm | - | - | - |
| 1788535244 | 23.89° C | 63% | 1012.1 hPa | 0 mm | - | - | - |
| 1788534944 | 23.89° C | 63% | 1012.1 hPa | 0 mm | - | - | - |
| 1788534644 | 23.89° C | 62% | 1012.1 hPa | 0 mm | - | - | - |
| 1788534343 | 24.44° C | 61% | 1012.1 hPa | 0 mm | - | - | - |
* Rain latest hour (hover to see other rain measurements)
** Current wind speed in m/s (hover to see current wind gust speed)